Location: Maddington
(51.2000°N, 1.9167°W)
Time: 12:52:17
(UTC+00:00)

Meteor 2-11 Rocket - Pass Details

Date: 18 September 2020
Orbit: 939 x 957 km, 82.5° (Epoch: 21 October)

Event Time Altitude Azimuth Distance (km) Brightness Sun altitude
Rises 18:44:55 0° 178° (S) 3,621 7.4 -5.6°
Reaches altitude 10° 18:47:25 10° 176° (S) 2,681 6.7 -6.0°
Maximum altitude 18:53:29 66° 95° (E) 1,042 4.5 -6.9°
Drops below altitude 10° 18:59:36 10° 15° (NNE) 2,701 6.8 -7.9°
Sets 19:02:07 0° 13° (NNE) 3,651 7.5 -8.3°
